TimeEDT,TemperatureF,Dew PointF,Humidity,Sea Level PressureIn,VisibilityMPH,Wind Direction,Wind SpeedMPH,Gust SpeedMPH,PrecipitationIn,Events,Conditions,WindDirDegrees,DateUTC
12:27 AM,66.2,60.8,83,29.78,10.0,WNW,6.9,-,N/A,,Overcast,300,2013-09-03 04:27:00
12:54 AM,66.9,61.0,81,29.77,10.0,WNW,4.6,-,N/A,,Overcast,300,2013-09-03 04:54:00
1:54 AM,66.0,60.1,81,29.76,10.0,Calm,Calm,-,N/A,,Overcast,0,2013-09-03 05:54:00
2:54 AM,64.9,62.1,90,29.75,10.0,Calm,Calm,-,N/A,,Overcast,0,2013-09-03 06:54:00
3:54 AM,64.9,60.1,84,29.75,10.0,WSW,10.4,-,N/A,,Mostly Cloudy,250,2013-09-03 07:54:00
4:54 AM,63.0,57.9,84,29.77,10.0,WSW,6.9,-,N/A,,Mostly Cloudy,250,2013-09-03 08:54:00
5:54 AM,63.0,57.0,81,29.78,10.0,WSW,6.9,-,N/A,,Mostly Cloudy,240,2013-09-03 09:54:00
6:54 AM,64.0,55.9,75,29.78,10.0,WSW,9.2,-,N/A,,Mostly Cloudy,240,2013-09-03 10:54:00
7:54 AM,64.9,55.9,73,29.80,10.0,West,8.1,-,N/A,,Overcast,260,2013-09-03 11:54:00
8:54 AM,66.0,55.9,70,29.81,10.0,SW,12.7,-,N/A,,Overcast,230,2013-09-03 12:54:00
9:54 AM,66.0,57.0,73,29.81,10.0,WSW,11.5,-,N/A,,Overcast,250,2013-09-03 13:54:00
10:54 AM,69.1,57.0,65,29.81,10.0,SW,16.1,20.7,N/A,,Mostly Cloudy,230,2013-09-03 14:54:00
11:54 AM,70.0,55.0,59,29.81,10.0,West,16.1,-,N/A,,Overcast,260,2013-09-03 15:54:00
12:54 PM,68.0,55.9,65,29.81,10.0,WSW,12.7,-,N/A,,Overcast,250,2013-09-03 16:54:00
1:54 PM,68.0,55.0,63,29.81,10.0,West,13.8,-,N/A,,Overcast,260,2013-09-03 17:54:00
2:54 PM,66.0,55.9,70,29.82,10.0,West,15.0,-,N/A,,Overcast,280,2013-09-03 18:54:00
3:54 PM,66.0,55.9,70,29.83,10.0,West,10.4,-,N/A,,Overcast,280,2013-09-03 19:54:00
4:01 PM,66.2,55.4,68,29.84,10.0,WNW,9.2,-,0.00,Rain,Light Rain,290,2013-09-03 20:01:00
4:20 PM,66.2,57.2,73,29.84,10.0,West,8.1,-,0.00,,Overcast,280,2013-09-03 20:20:00
4:54 PM,66.0,57.9,75,29.83,10.0,West,8.1,-,0.00,Rain,Light Rain,270,2013-09-03 20:54:00
5:54 PM,66.9,57.0,70,29.83,10.0,WSW,10.4,-,N/A,,Overcast,250,2013-09-03 21:54:00
6:54 PM,66.0,55.9,70,29.84,10.0,WSW,10.4,-,N/A,,Overcast,250,2013-09-03 22:54:00
7:54 PM,66.0,55.9,70,29.85,10.0,WSW,11.5,-,N/A,,Overcast,250,2013-09-03 23:54:00
8:54 PM,64.9,57.0,75,29.88,10.0,WSW,11.5,-,N/A,,Overcast,240,2013-09-04 00:54:00
9:54 PM,64.9,57.9,78,29.88,10.0,West,9.2,-,N/A,,Overcast,260,2013-09-04 01:54:00
10:54 PM,64.0,57.9,80,29.89,10.0,West,8.1,-,N/A,,Scattered Clouds,260,2013-09-04 02:54:00
11:54 PM,64.9,57.9,78,29.89,10.0,WSW,11.5,-,N/A,,Overcast,250,2013-09-04 03:54:00